Location: Stamford Observatory
(41.1241°N, 73.5498°W)
Time: 02:53:13
(UTC-05:00)

Daily predictions for brighter satellites

Satellite Brightness Start Highest point End
(mag) Time Altitude Azimuth Time Altitude Azimuth Time Altitude Azimuth
CZ-3 R/B 4.5 01:38:43 10° W 02:48:33 47° S 02:57:41 10° SE
SL-16 R/B 4.3 03:40:52 22° ENE 03:40:52 22° ENE 03:44:47 10° ESE
Cosmos 2297 Rocket 4.0 03:51:30 27° ENE 03:51:30 27° ENE 03:54:26 10° NE
CZ-3 Stage 3 4.4 03:57:22 15° SE 03:57:22 15° SE 03:59:24 10° ESE
Cosmos 2227 Rocket 3.9 04:05:01 25° NE 04:05:01 25° NE 04:07:17 10° NNE
Tsikada Rocket 4.4 04:19:32 29° N 04:22:51 62° E 04:29:05 10° SSE
Cosmos 2333 Rocket 4.1 04:39:22 17° S 04:39:22 17° S 04:40:38 10° S
SeaSat 1 4.4 04:41:10 10° NNE 04:42:31 18° N 04:42:31 18° N
Cosmos 968 Rocket 4.4 04:41:59 10° S 04:47:01 49° ESE 04:52:05 10° NNE
Cosmos 1864 Rocket 4.3 04:41:30 10° S 04:47:37 80° W 04:53:49 10° N
Cosmos 1725 Rocket 3.8 04:41:23 10° S 04:47:37 79° W 04:53:57 10° N
SKYMED 2 4.3 04:45:49 10° SSE 04:50:00 51° ENE 04:50:55 43° NNE
USA 229 DEB 3.7 04:50:54 49° NW 04:53:06 85° WSW 05:00:21 10° SSE
USA 229 3.7 04:50:57 48° NW 04:53:12 86° WSW 05:00:27 10° SSE
NOAA 6 4.1 04:49:04 10° NNE 04:54:16 75° ESE 04:59:27 10° S
Cosmos 1328 4.3 05:04:54 41° NNE 05:06:02 58° E 05:09:57 10° SSE
Cosmos 304 Rocket 3.7 05:04:56 50° N 05:06:10 80° ENE 05:10:56 10° SSE
OAO 2 Rocket 4.0 05:09:34 38° SSW 05:10:17 41° S 05:14:53 10° ESE
Cosmos 2221 4.3 05:08:10 10° SSE 05:12:01 32° E 05:15:53 10° NNE
ISS -2.6 05:16:07 53° E 05:16:07 53° E 05:18:45 10° ESE
Cosmos 540 Rocket 4.2 05:17:13 34° SW 05:17:13 34° SW 05:20:39 10° S
Cosmos 2058 3.8 05:16:20 10° N 05:20:21 47° E 05:24:20 10° SSE
Cosmos 2237 Rocket 3.6 05:22:48 21° SW 05:22:48 21° SW 05:25:20 10° SSW
Aureole 2 Rocket 3.8 05:26:05 33° SW 05:26:05 33° SW 05:28:50 10° S
SL-16 R/B 2.2 05:22:49 36° NW 05:25:00 60° WSW 05:30:33 10° S
Cosmos 1743 Rocket 4.0 05:27:58 40° WSW 05:27:58 40° WSW 05:31:24 10° SSW
SL-8 R/B 4.4 05:25:58 33° NNW 05:27:29 44° NNE 05:32:05 10° E
Cosmos 2297 Rocket 2.9 05:33:23 31° NW 05:33:23 31° NW 05:38:19 10° N
IDEFIX/ARIANE 42P 4.2 05:31:16 10° NNE 05:36:07 36° E 05:40:57 10° SSE
Cosmos 1842 Rocket 3.7 05:32:50 10° SSW 05:37:00 46° WNW 05:41:13 10° N
Cosmos 2233 Rocket 4.1 05:30:57 10° SSW 05:37:00 52° WNW 05:43:10 10° N
USA 234 3.8 05:31:26 10° ESE 05:37:47 54° NNE 05:43:00 16° NW
COSMO-SKYMED 1 2.8 05:33:51 10° S 05:38:00 46° W 05:39:28 33° NW
PSLV R/B 4.1 05:38:55 29° SW 05:40:12 45° SSE 05:43:27 10° E
Cosmos 2151 2.8 05:39:27 13° NNW 05:43:08 66° W 05:47:20 10° S
Meteor 1-11 4.2 05:37:33 10° NNW 05:43:23 81° W 05:49:11 10° S
Cosmos 1356 Rocket 4.5 05:40:52 10° N 05:44:49 46° ENE 05:48:48 10° SSE
ERBS 2.4 05:44:40 35° NNW 05:45:57 72° NE 05:49:21 10° SE
Cosmos 1538 Rocket 4.0 05:41:35 14° NNW 05:46:12 66° WSW 05:51:29 10° S
Cosmos 2227 Rocket 3.5 05:46:53 20° NW 05:46:53 20° NW 05:50:20 10° N
Cosmos 1805 Rocket 4.2 05:42:19 10° N 05:46:42 58° E 05:51:01 10° SSE
Meteor 1-4 Rocket 3.7 05:48:27 27° NW 05:48:27 27° NW 05:50:44 10° N
NOSS 3-1 (C) 4.1 05:41:10 14° NW 05:48:01 87° WSW 05:56:24 10° SSE
Cosmos 1340 Rocket 2.6 05:44:25 10° NNW 05:48:22 81° W 05:52:19 10° S
Meteor 1-16 Rocket 4.1 05:44:01 10° SSW 05:49:23 60° WNW 05:54:40 10° N
Cosmos 1271 Rocket 2.6 05:47:23 10° SSW 05:51:11 61° W 05:54:56 10° N
Meteor 1-28 Rocket 3.5 05:49:57 10° S 05:53:33 43° W 05:55:51 20° NW
Cosmos 923 Rocket 4.4 05:48:29 10° NNW 05:53:42 66° ENE 05:58:54 10° SSE
Cosmos 1500 Rocket 4.3 05:52:33 24° NW 05:54:17 32° W 05:58:14 10° SSW
Cosmos 2034 Rocket 4.2 05:50:18 10° S 05:56:27 75° E 06:02:41 10° N
Ariane Rocket 3.0 05:52:02 10° N 05:57:04 60° WNW 06:02:04 10° SSW
SL-14 R/B 3.7 05:55:40 15° NNW 05:58:43 40° W 06:02:31 10° SSW
YAOGAN 3 4.5 05:56:47 10° N 06:01:10 74° WNW 06:05:30 10° SSW
Cosmos 292 Rocket 4.1 05:57:04 10° NNW 06:01:51 67° ENE 06:06:36 10° SSE
IRS-1A Rocket 4.5 05:56:20 10° NNE 06:02:16 82° ESE 06:08:05 10° SSW
Cosmos 1680 Rocket 4.1 05:57:20 10° NNW 06:02:37 61° ENE 06:07:52 10° SSE
SJ-12 4.2 06:00:09 10° NNE 06:04:14 72° ESE 06:08:17 10° S
Cosmos 1626 2.3 06:03:44 10° N 06:07:29 75° E 06:11:12 10° SSE
Cosmos 1943 4.0 06:02:23 10° NNW 06:07:59 54° ENE 06:13:32 10° SE
Sich 1 3.3 06:07:37 10° N 06:11:59 70° E 06:16:17 10° SSE
SMAP 3.4 06:07:37 10° NNE 06:12:17 69° ESE 06:16:55 10° S
Meteor 2-1 Rocket 4.2 06:07:53 10° SSW 06:13:23 60° WNW 06:19:04 10° N
Cosmos 1513 Rocket 4.5 06:07:37 10° SSW 06:13:51 72° W 06:20:15 10° N
Cosmos 1633 Rocket 3.5 06:09:50 10° N 06:14:11 65° E 06:18:29 10° SSE
CZ-2C R/B 2.3 06:10:54 10° NNE 06:15:32 85° ESE 06:20:06 10° SSW
ATLAS CENTAUR R/B 4.5 06:14:56 10° NNW 06:18:23 18° NNE 06:24:41 10° ENE
Cosmos 389 Rocket 3.1 06:15:50 10° S 06:19:26 62° E 06:23:05 10° NNE
CZ-4 R/B 1.3 06:16:41 10° N 06:20:44 73° WNW 06:24:49 10° SSW
PAYLOAD A 4.0 06:18:36 10° N 06:23:32 54° WNW 06:28:16 10° SSW
CSL-04 Debris 4.3 06:18:16 10° N 06:23:35 51° WNW 06:28:50 10° SW
CORIOLIS 4.5 06:19:23 10° NNE 06:24:49 73° ESE 06:30:14 10° S
Tiangong 2 3.3 06:22:33 10° SSW 06:25:11 25° SSE 06:27:49 10° E
Cosmos 1464 Rocket 4.3 06:21:24 10° SSW 06:27:28 47° WNW 06:33:31 10° N
Cosmos 1603 4.0 06:23:31 10° NW 06:28:55 48° WSW 06:34:18 10° S
YAOGAN 1 2.5 06:28:04 10° N 06:32:25 82° WNW 06:36:44 10° SSW
Cosmos 2263 Rocket 2.7 06:28:57 10° S 06:34:33 67° ESE 06:40:13 10° NNE
GPS 2-05 Rocket1 4.2 06:31:54 10° WSW 06:34:51 31° S 06:37:53 10° ESE
Cosmos 2112 Rocket 4.0 06:31:54 10° NNW 06:37:14 78° WSW 06:42:35 10° SSE
Cosmos 1908 3.1 06:34:03 10° SSW 06:37:51 70° W 06:41:41 10° N
Coronas F rocket 1.1 06:37:44 10° NNW 06:40:06 52° W 06:42:26 10° S
MSX 3.9 06:39:13 10° NNE 06:45:01 86° WNW 06:50:47 10° SSW
Cosmos 1666 Rocket 3.9 06:40:57 10° NNW 06:45:13 45° W 06:49:28 10° SSW
Cosmos 2221 3.8 06:46:23 10° WSW 06:49:39 20° WNW 06:52:55 10° NNW
CZ-4 R/B 4.4 06:45:43 10° N 06:49:48 65° WNW 06:53:52 10° SSW
